When you browse on this site, cookies collect data to enhance your experience and personalize the content and advertising you see.
Visit our Privacy Policy to learn more. By continuing to use the site, you agree to this use of cookies and data.
  • In Austria
  • List of Countries
  • For 7 days
  • Water Temperature
  • Satellite Maps
  • Weather Map
  • News
  • Weather Widgets
  • user-avatar
    Login

    Hourly Weather Zakopane

    Today, 21 March, Thursday

    Time Temperature Precipitation Wind Pressure Humidity
    00:00 -2°C° 0 mm 1 mps 693 mmHg 79%
    01:00 -3°C° 0 mm 1 mps 693 mmHg 77%
    02:00 -2°C° 0 mm 1 mps 693 mmHg 76%
    03:00 -2°C° 0 mm 1 mps 693 mmHg 75%
    04:00 -2°C° 0 mm 1 mps 693 mmHg 73%
    05:00 -2°C° 0 mm 1 mps 693 mmHg 70%
    06:00 -1°C° 0 mm 1 mps 693 mmHg 66%
    07:00 +1°C° 0 mm 1 mps 694 mmHg 62%
    08:00 +3°C° 0 mm 1 mps 694 mmHg 60%
    09:00 +5°C° 0 mm 1 mps 695 mmHg 57%
    10:00 +7°C° 0 mm 1 mps 695 mmHg 55%
    11:00 +7°C° 0 mm 1 mps 695 mmHg 58%
    12:00 +8°C° 0 mm 1 mps 695 mmHg 61%
    13:00 +9°C° 0 mm 1 mps 695 mmHg 65%
    14:00 +9°C° 0 mm 1 mps 694 mmHg 68%
    15:00 +8°C° 0 mm 1 mps 694 mmHg 71%
    16:00 +8°C° 0 mm 1 mps 694 mmHg 75%
    17:00 +6°C° 0 mm 1 mps 693 mmHg 80%
    18:00 +5°C° 0 mm 1 mps 693 mmHg 85%
    19:00 +3°C° 0 mm 1 mps 693 mmHg 90%
    20:00 +3°C° 0 mm 1 mps 693 mmHg 91%
    21:00 +3°C° 0 mm 1 mps 693 mmHg 91%
    22:00 +2°C° 0 mm 1 mps 693 mmHg 92%
    23:00 +2°C° 0 mm 1 mps 693 mmHg 92%

    Tomorrow, 22 March, Friday

    Time Temperature Precipitation Wind Pressure Humidity
    00:00 +2°C° 0 mm 1 mps 693 mmHg 93%
    01:00 +2°C° 0 mm 1 mps 693 mmHg 93%
    02:00 +2°C° 0 mm 1 mps 693 mmHg 93%
    03:00 +2°C° 0 mm 1 mps 693 mmHg 94%
    04:00 +2°C° 0 mm 1 mps 693 mmHg 94%
    05:00 +3°C° 0 mm 1 mps 693 mmHg 94%
    06:00 +4°C° 0 mm 1 mps 693 mmHg 94%
    07:00 +4°C° 0 mm 1 mps 693 mmHg 94%
    08:00 +6°C° 0 mm 1 mps 694 mmHg 90%
    09:00 +8°C° 0 mm 1 mps 694 mmHg 86%
    10:00 +9°C° 0 mm 1 mps 694 mmHg 83%
    11:00 +9°C° 0 mm 2 mps 694 mmHg 81%
    12:00 +9°C° 0 mm 2 mps 694 mmHg 80%
    13:00 +9°C° 0 mm 2 mps 694 mmHg 79%
    14:00 +9°C° 0 mm 2 mps 694 mmHg 81%
    15:00 +8°C° 0 mm 2 mps 693 mmHg 83%
    16:00 +9°C° 0 mm 1 mps 693 mmHg 85%
    17:00 +8°C° 0 mm 1 mps 693 mmHg 89%
    18:00 +7°C° 0 mm 1 mps 692 mmHg 92%
    19:00 +5°C° 0 mm 1 mps 692 mmHg 96%
    20:00 +5°C° 0 mm 1 mps 692 mmHg 96%
    21:00 +5°C° 0 mm 1 mps 692 mmHg 97%
    22:00 +5°C° 0 mm 1 mps 693 mmHg 97%
    23:00 +5°C° 0 mm 1 mps 692 mmHg 97%

    Day after tomorrow, 23 March, Saturday

    Time Temperature Precipitation Wind Pressure Humidity
    00:00 +4°C° 0 mm 1 mps 692 mmHg 96%
    01:00 +4°C° 0 mm 1 mps 692 mmHg 96%
    02:00 +3°C° 0 mm 1 mps 691 mmHg 95%
    03:00 +3°C° 0 mm 1 mps 691 mmHg 93%
    04:00 +3°C° 0 mm 1 mps 690 mmHg 91%
    05:00 +3°C° 0 mm 1 mps 691 mmHg 90%
    06:00 +4°C° 0 mm 1 mps 691 mmHg 88%
    07:00 +5°C° 0 mm 1 mps 691 mmHg 86%
    08:00 +7°C° 0 mm 1 mps 691 mmHg 80%
    09:00 +8°C° 0 mm 0 mps 691 mmHg 73%
    10:00 +11°C° 0 mm 0 mps 692 mmHg 67%
    11:00 +12°C° 0 mm 1 mps 692 mmHg 64%
    12:00 +13°C° 0 mm 1 mps 691 mmHg 61%
    13:00 +14°C° 0 mm 1 mps 691 mmHg 58%
    14:00 +13°C° 0 mm 1 mps 691 mmHg 60%
    15:00 +13°C° 0 mm 1 mps 690 mmHg 62%
    16:00 +12°C° 0 mm 1 mps 690 mmHg 65%
    17:00 +11°C° 0 mm 1 mps 689 mmHg 71%
    18:00 +9°C° 0 mm 1 mps 689 mmHg 77%
    19:00 +8°C° 0 mm 1 mps 689 mmHg 83%
    20:00 +7°C° 0 mm 1 mps 689 mmHg 84%
    21:00 +7°C° 0 mm 1 mps 689 mmHg 85%
    22:00 +6°C° 0 mm 1 mps 688 mmHg 87%
    23:00 +6°C° 0 mm 1 mps 688 mmHg 87%

    24 March, Sunday

    Time Temperature Precipitation Wind Pressure Humidity
    00:00 +6°C° 0 mm 1 mps 688 mmHg 88%
    01:00 +6°C° 0 mm 1 mps 688 mmHg 88%
    02:00 +6°C° 0 mm 1 mps 688 mmHg 89%
    03:00 +6°C° 0 mm 1 mps 688 mmHg 89%
    04:00 +6°C° 0 mm 1 mps 688 mmHg 90%
    05:00 +6°C° 0 mm 1 mps 688 mmHg 90%
    06:00 +6°C° 0 mm 1 mps 688 mmHg 90%
    07:00 +7°C° 0 mm 1 mps 689 mmHg 90%
    08:00 +7°C° 0.1 mm 1 mps 689 mmHg 90%
    09:00 +8°C° 0.1 mm 1 mps 689 mmHg 90%
    10:00 +8°C° 0.1 mm 1 mps 689 mmHg 89%
    11:00 +8°C° 0.1 mm 1 mps 689 mmHg 88%
    12:00 +8°C° 0.1 mm 1 mps 688 mmHg 87%
    13:00 +8°C° 0.1 mm 1 mps 688 mmHg 86%
    14:00 +8°C° 0.1 mm 1 mps 688 mmHg 86%
    15:00 +8°C° 0.1 mm 1 mps 687 mmHg 85%
    16:00 +8°C° 0.1 mm 1 mps 687 mmHg 85%
    17:00 +6°C° 0.1 mm 2 mps 687 mmHg 87%
    18:00 +5°C° 0.1 mm 2 mps 687 mmHg 89%
    19:00 +4°C° 0.1 mm 2 mps 686 mmHg 91%
    20:00 +3°C° 0.1 mm 2 mps 686 mmHg 89%
    21:00 +3°C° 0.1 mm 2 mps 686 mmHg 88%
    22:00 +3°C° 0.1 mm 1 mps 686 mmHg 87%
    23:00 +3°C° 0 mm 1 mps 686 mmHg 87%

    25 March, Monday

    Time Temperature Precipitation Wind Pressure Humidity
    00:00 +2°C° 0 mm 1 mps 686 mmHg 88%
    01:00 +2°C° 0 mm 1 mps 686 mmHg 88%
    02:00 +1°C° 0 mm 1 mps 686 mmHg 89%
    03:00 0°C° 0 mm 1 mps 686 mmHg 89%
    04:00 -1°C° 0 mm 1 mps 686 mmHg 90%
    05:00 0°C° 0 mm 1 mps 686 mmHg 87%
    06:00 -2°C° 0 mm 2 mps 686 mmHg 83%
    07:00 -1°C° 0 mm 2 mps 686 mmHg 79%
    08:00 +1°C° 0 mm 2 mps 687 mmHg 74%
    09:00 +1°C° 0 mm 2 mps 687 mmHg 69%
    10:00 +1°C° 0 mm 3 mps 687 mmHg 64%
    11:00 +1°C° 0 mm 3 mps 686 mmHg 62%
    12:00 +2°C° 0 mm 3 mps 686 mmHg 60%
    13:00 +2°C° 0 mm 3 mps 686 mmHg 58%
    14:00 +2°C° 0 mm 3 mps 685 mmHg 59%
    15:00 +1°C° 0 mm 4 mps 685 mmHg 60%
    16:00 +1°C° 0 mm 4 mps 685 mmHg 61%
    17:00 +1°C° 0.2 mm 3 mps 684 mmHg 68%
    18:00 0°C° 0.2 mm 3 mps 684 mmHg 75%
    19:00 -1°C° 0.2 mm 3 mps 684 mmHg 81%
    20:00 -1°C° 0.1 mm 3 mps 684 mmHg 83%
    21:00 -1°C° 0.1 mm 3 mps 684 mmHg 85%
    22:00 -1°C° 0.1 mm 2 mps 683 mmHg 87%
    23:00 -2°C° 0.5 mm 3 mps 683 mmHg 86%

    26 March, Tuesday

    Time Temperature Precipitation Wind Pressure Humidity
    00:00 -3°C° 0.5 mm 4 mps 683 mmHg 86%
    01:00 -4°C° 0.5 mm 5 mps 682 mmHg 85%
    02:00 -4°C° 0.3 mm 5 mps 682 mmHg 86%
    03:00 -4°C° 0.3 mm 5 mps 682 mmHg 87%
    04:00 -5°C° 0.3 mm 5 mps 682 mmHg 89%
    05:00 -5°C° 0.3 mm 5 mps 681 mmHg 87%
    06:00 -5°C° 0.3 mm 5 mps 681 mmHg 85%
    07:00 -6°C° 0.3 mm 5 mps 681 mmHg 82%
    08:00 -6°C° 0.5 mm 5 mps 681 mmHg 81%
    09:00 -6°C° 0.5 mm 6 mps 681 mmHg 80%
    10:00 -5°C° 0.5 mm 6 mps 681 mmHg 79%
    11:00 -5°C° 0.4 mm 6 mps 681 mmHg 76%
    12:00 -5°C° 0.4 mm 6 mps 681 mmHg 73%
    13:00 -5°C° 0.4 mm 6 mps 682 mmHg 70%
    14:00 -5°C° 0.2 mm 6 mps 682 mmHg 71%
    15:00 -5°C° 0.2 mm 5 mps 682 mmHg 72%
    16:00 -5°C° 0.2 mm 5 mps 682 mmHg 73%
    17:00 -5°C° 0.6 mm 5 mps 682 mmHg 77%
    18:00 -5°C° 0.6 mm 5 mps 683 mmHg 82%
    19:00 -6°C° 0.6 mm 5 mps 683 mmHg 86%
    20:00 -6°C° 0.5 mm 5 mps 683 mmHg 87%
    21:00 -6°C° 0.5 mm 5 mps 684 mmHg 88%
    22:00 -6°C° 0.5 mm 5 mps 684 mmHg 89%
    23:00 -5°C° 0.5 mm 4 mps 684 mmHg 90%
    Show more